Погода в Кызылорде

Хотите узнать прогноз погоды в Кызылорде? Тогда Вам сюда: Погода в Кызылорде

Поиск расширенной информации на нашем сайте:

Полезная информация:

Новости сайта



14.11.2019
Обновлён Долгосрочный прогноз погоды по России и другим странам хСССР на ноябрь-декабрь 2019 года.
Опубликованы прогностические карты: Предварительный прогноз на декабрь 2019 года, Предварительный прогноз на январь 2020 года, Предварительная схема синоптических процессов на декабрь 2019 г..

11.11.2019
Обновлены Долгосрочный прогноз погоды по России и другим странам хСССР на ноябрь-декабрь 2019 года и Предварительный прогноз на зиму 2019/2020 годов

04.11.2019
Опубликован Долгосрочный прогноз погоды по России и другим странам хСССР на ноябрь 2019 года
Сравнение прогнозируемой аномалии приземной температуры воздуха на ноябрь 2019 года по разным моделям
Предварительный прогноз на зиму 2019/2020 года




Погода в Кызылорде - сегодня

Время (UTC), дата Ветер
(°,м/с) 
Видим.   Явления Облачность Т
(°С)
Тd
(°С)
f(%) Тe
(°С)
Pmin
(гПа)
dP
(гПа)
Po
(мм)
O2
(г/м3)
Тmin Tmax R s Состояние
почвы
00 18.11.19 тихо ()   н/о    ясно 
-5.3 -9 75 -5  1032.1  -0.3  761  314           
03 18.11.19 тихо ()   20000 м    ясно 
-7.2 -10.1 80 -7  1032.9  0.7  762  316           
06 18.11.19 тихо ()   20000 м    ясно 
+2.9 -6.4 50 +3  1033.2  0.9  763  305  -7.6         
09 18.11.19 250 (З) 20000 м    ясно 
+7.1 -8.2 33 +7  1031.1  -1.8  761  300           
12 18.11.19 260 (З) 20000 м    ясно 
+5.4 -8.1 37 +5  1029.9  -1.3  760  301           
15 18.11.19 260 (З) н/о    ясно 
+1.8 -9.5 43 +3  1029.9  -0.3  760  305    +7.5       
18 18.11.19 270 (З) н/о    ясно 
-0.5 -10.3 47 -1  1028.6  -1.3  759  307    +7.5       
21 18.11.19 260 (З) н/о    ясно 
-2.7 -11.1 52 -4  1027  -1.7  758  309           
00 19.11.19 260 (З) н/о    ясно 
-4.1 -9.2 68 -5  1026  -1.3  757  311           
03 19.11.19 260 (З) 20000 м    ясно 
-6.3 -9.4 79 -8  1025.7  -0.3  757  313           
06 19.11.19 240 (ЮЗ) 20000 м    5/0 верхняя 
[Ci]
+1.7 -4.9 62 +1  1024.5  -0.7  756  303  -7.2         
09 19.11.19 310 (СЗ) 20000 м    9/0 средняя 
[Ac und]
+4.6 -2.8 59 +3  1023.2  -1  755  300           
12 19.11.19 340 (С) 20000 м    9/0 средняя, верхняя 
[Ac cast|Ci fib]
+2 -3.7 66 +1  1023.3  -0.1  755  303           
15 19.11.19 360 (С) н/о    9/6 1000 м средняя 
[Sc diur, vesp|Ac trans]
+0.3 -4.1 72 1024  0.5  756  305    +6       
18 19.11.19 010 (С) н/о    9/9 1000 м 
[Sc diur, vesp]
-1 -4.9 75 -2  1023.3  -0.6  755  306    +6       
21 19.11.19 020 (С) н/о    9/9 1000 м 
[Sc diur, vesp]
-1.5 -4.4 81 -2  1023.8  0.3  755  307           
00 20.11.19 040 (СВ) н/о    9/9 1000 м 
[Cu Sc]
-1.8 -4.6 81 -4  1023.9  0.1  755  307           
03 20.11.19 050 (СВ) 20000 м    10/10 600 м 
[Sc]
-3.3 -5.7 83 -6  1024.4  0.5  756  309           
06 20.11.19 060 (СВ) 20000 м  в посл. час снег  10/10 600 м 
[Sc]
-6.1 -9.6 76 -10  1026.3  1.6  757  313  -3.6         
09 20.11.19 050 (СВ) 4000 м  слаб. снег  10/10 600 м 
[Ns]
-5.5 -8.5 79 -9  1025.9  -0.4  757  312           
12 20.11.19 040 (СВ) 20000 м  в посл. час снег  9/5 600 м средняя 
[Cu Sc|Ac und]
-5.5 -11.6 62 -9  1026.4  0.5  757  312           
15 20.11.19 030 (СВ) н/о    8/0 средняя 
[Ac lent]
-7.7 -16.1 51 -11  1027.9  1.4  758  316    -3.3  0.2     
18 20.11.19 020 (С) н/о    5/0 средняя 
[Ac lent]
-10.1 -18.5 50 -15  1029.4  1.3  759  319    -3.3  0.2     
21 20.11.19 040 (СВ) н/о    ясно 
-13.7 -19.8 60 -18  1030.7  760  324           
00 21.11.19 030 (СВ) н/о    ясно 
-15.8 -20.9 65 -22  1031.6  0.8  761  327           
Время (UTC), дата Ветер
(°,м/с) 
Видим.   Явления Облачность Т
(°С)
Тd
(°С)
f(%) Тe
(°С)
Pmin
(гПа)
dP
(гПа)
Po
(мм)
O2
(г/м3)
Тmin Tmax R s Состояние
почвы

Для получения пояснительной информации подведите курсор к названию столбца.

ПОГОДА в Кызылорде - архив

Всё, что Вы хотите узнать о погоде в Кызылорде - удобно и подробно!

Выберите нужную дату (начиная с 1 января 2019* года) и нажмите кнопку "Найти".
Будут отображены архивные сводки погоды по пункту Кызылорда, начиная с указанной даты.


Отображать данные в формате CSV (для использования в таблицах Excel)


Внимание! Наш архив погоды предназначен исключительно для личного некоммерческого использования в познавательных целях. Если Вам необходимы официальные справки о состоянии погоды (для производственных, юридических, коммерческих и т.п. целей), обращайтесь в органы Росгидромета.

*Примечание: данная дата относится к архиву по метеостанциям СССР (Россия, СНГ, Балтия).
Архив по метеостанциям Зарубежной Европы и Азии (кроме Китая) хранится 10 дней, по другим регионам земного шара (Китай, Африка, Америка, Австралия, Океания) - 1 день.

Кызылорда - район местоположения метеостанции


Название, широта, долгота, высота метеостанции:
Кызылорда (город) 44.8°ш. 65.5°д. 130 м над ур. моря [Казахстан]

Дополнительная информация

В oтличие oт бoльшинства пoгoдных сайтoв мы публикуем пoдрoбную метеoинфoрмацию в детальнoм прoфессиoнальнoм фoрмате.

Характеристики температуры и влажнoсти вoздуха измеряются на высoте 2 м в тени вдали oт зданий и деревьев.
Скoрoсть ветра измеряется на высoте 10 м (на урoвне рoста челoвека скoрoсть ветра ниже в 1.5-2 раза). Если метеoстанция нахoдится в гoрoде или в лесу, тo скoрoсть ветра занижена на 2-4 м/с пo сравнению с oткрытым местoм. Скoрoсть ветра над акватoриями крупных рек и oзёр, а также на вершинах хoлмoв на 2-5 м/с выше, чем в oбычных услoвиях.
Атмoсфернoе давление в разных тoчках местнoсти мoжет значительнo oтличаться oт давления на метеoстанции, в зависимoсти oт услoвий рельефа (при пoдъёме на 10 м давление пoнижается примернo на 1 мм рт.ст.).